EFW29CF EGKK-GCTS

Flight info

Callsign EFW29CF
Flight time 4h 1m
Altitude 33000
Route IMVUR1Z IMVUR N63 SAM M195 LORKU DCT EBOMO DCT KORUL DCT AGADO DCT DIRMA DCT BEXAL/N0454F350 UN866 KONBA KONBA1G
Aircraft A321/M-SDE3FGIJ1RWXY/SB1

Departure

Time 2026-04-29 09:27
Airport London Gatwick Airport (EGKK)

Arrival

Time 2026-04-29 13:29
Airport Tenerife Sur Airport (GCTS)
Time Latitude Longitude Altitude Speed Heading
2026-04-29 08:44 51.15870 -0.16960 211 ft 0 kts 110°
2026-04-29 09:13 51.15877 -0.16991 215 ft 4 kts 106°
2026-04-29 09:13 51.15883 -0.17025 217 ft 4 kts 120°
2026-04-29 09:14 51.15899 -0.17048 214 ft 4 kts 182°
2026-04-29 09:14 51.15922 -0.17035 214 ft 4 kts 221°
2026-04-29 09:14 51.15942 -0.17005 214 ft 4 kts 230°
2026-04-29 09:14 51.15958 -0.16971 215 ft 4 kts 240°
2026-04-29 09:15 51.15969 -0.16932 217 ft 4 kts 251°
2026-04-29 09:15 51.15976 -0.16895 215 ft 2 kts 255°
2026-04-29 09:15 51.15976 -0.16893 215 ft 0 kts 255°
2026-04-29 09:18 51.15974 -0.16907 214 ft 3 kts 255°
2026-04-29 09:18 51.15965 -0.16948 216 ft 6 kts 246°
2026-04-29 09:18 51.15948 -0.16991 216 ft 8 kts 232°
2026-04-29 09:19 51.15904 -0.17052 213 ft 9 kts 219°
2026-04-29 09:19 51.15849 -0.17086 214 ft 9 kts 180°
2026-04-29 09:19 51.15809 -0.17173 206 ft 10 kts 258°
2026-04-29 09:19 51.15791 -0.17310 208 ft 16 kts 257°
2026-04-29 09:20 51.15774 -0.17428 208 ft 16 kts 257°
2026-04-29 09:20 51.15749 -0.17607 210 ft 17 kts 256°
2026-04-29 09:20 51.15723 -0.17789 205 ft 17 kts 259°
2026-04-29 09:20 51.15698 -0.17975 207 ft 17 kts 257°
2026-04-29 09:21 51.15672 -0.18164 211 ft 18 kts 257°
2026-04-29 09:21 51.15638 -0.18345 214 ft 16 kts 224°
2026-04-29 09:21 51.15542 -0.18332 205 ft 14 kts 167°
2026-04-29 09:21 51.15443 -0.18297 216 ft 15 kts 167°
2026-04-29 09:22 51.15343 -0.18265 205 ft 15 kts 168°
2026-04-29 09:22 51.15241 -0.18230 205 ft 15 kts 167°
2026-04-29 09:22 51.15190 -0.18279 216 ft 10 kts 261°
2026-04-29 09:22 51.15175 -0.18425 209 ft 18 kts 257°
2026-04-29 09:23 51.15144 -0.18625 208 ft 19 kts 257°
2026-04-29 09:23 51.15116 -0.18831 208 ft 19 kts 259°
2026-04-29 09:23 51.15089 -0.19040 209 ft 19 kts 258°
2026-04-29 09:23 51.15061 -0.19249 205 ft 19 kts 258°
2026-04-29 09:24 51.15033 -0.19459 205 ft 19 kts 258°
2026-04-29 09:24 51.15003 -0.19668 211 ft 19 kts 258°
2026-04-29 09:24 51.14974 -0.19878 213 ft 20 kts 256°
2026-04-29 09:24 51.14943 -0.20093 204 ft 20 kts 257°
2026-04-29 09:25 51.14914 -0.20308 204 ft 20 kts 257°
2026-04-29 09:25 51.14884 -0.20518 214 ft 17 kts 257°
2026-04-29 09:25 51.14843 -0.20646 208 ft 12 kts 203°
2026-04-29 09:25 51.14763 -0.20707 210 ft 13 kts 207°
2026-04-29 09:26 51.14682 -0.20715 206 ft 11 kts 168°
2026-04-29 09:26 51.14618 -0.20691 215 ft 8 kts 167°
2026-04-29 09:26 51.14594 -0.20637 213 ft 6 kts 95°
2026-04-29 09:26 51.14613 -0.20517 217 ft 31 kts 77°
2026-04-29 09:27 51.14711 -0.19805 209 ft 98 kts 77°
2026-04-29 09:27 51.14895 -0.18446 263 ft 146 kts 77°
2026-04-29 09:27 51.15131 -0.16896 1042 ft 144 kts 75°
2026-04-29 09:27 51.15344 -0.15371 1755 ft 144 kts 78°
2026-04-29 09:28 51.15565 -0.13713 2002 ft 163 kts 77°
2026-04-29 09:28 51.15818 -0.11829 2165 ft 184 kts 77°
2026-04-29 09:28 51.16092 -0.09801 2411 ft 189 kts 78°
2026-04-29 09:28 51.16372 -0.07746 2674 ft 190 kts 79°
2026-04-29 09:29 51.16756 -0.05747 2921 ft 192 kts 61°
2026-04-29 09:29 51.19458 -0.04548 3450 ft 233 kts 359°
2026-04-29 09:29 51.21060 -0.05173 3701 ft 242 kts 347°
2026-04-29 09:30 51.22414 -0.06889 3952 ft 261 kts 306°
2026-04-29 09:30 51.22930 -0.09724 4201 ft 280 kts 270°
2026-04-29 09:30 51.22770 -0.12910 4457 ft 295 kts 259°
2026-04-29 09:30 51.22373 -0.16145 4714 ft 298 kts 255°
2026-04-29 09:31 51.21898 -0.19372 4970 ft 299 kts 254°
2026-04-29 09:31 51.21352 -0.22568 5225 ft 298 kts 249°
2026-04-29 09:31 51.20664 -0.25706 5476 ft 300 kts 247°
2026-04-29 09:31 51.19941 -0.28798 5725 ft 300 kts 246°
2026-04-29 09:32 51.19198 -0.31906 5982 ft 300 kts 246°
2026-04-29 09:32 51.18457 -0.35014 6240 ft 300 kts 247°
2026-04-29 09:32 51.17734 -0.38142 6499 ft 301 kts 248°
2026-04-29 09:32 51.17023 -0.41280 6746 ft 301 kts 247°
2026-04-29 09:33 51.16310 -0.44437 6997 ft 303 kts 248°
2026-04-29 09:33 51.15598 -0.47605 7304 ft 305 kts 247°
2026-04-29 09:33 51.14885 -0.50784 7982 ft 304 kts 248°
2026-04-29 09:33 51.14168 -0.53981 8558 ft 309 kts 248°
2026-04-29 09:34 51.13439 -0.57214 9162 ft 312 kts 247°
2026-04-29 09:34 51.12697 -0.60476 9738 ft 315 kts 247°
2026-04-29 09:34 51.11948 -0.63763 10325 ft 317 kts 247°
2026-04-29 09:34 51.11036 -0.67040 10492 ft 330 kts 232°
2026-04-29 09:35 51.09492 -0.69792 10619 ft 341 kts 219°
2026-04-29 09:35 51.07746 -0.72411 10740 ft 357 kts 218°
2026-04-29 09:35 51.05897 -0.75156 10874 ft 371 kts 219°
2026-04-29 09:35 51.03984 -0.77992 11264 ft 377 kts 219°
2026-04-29 09:36 51.02062 -0.80849 11741 ft 380 kts 219°
2026-04-29 09:36 51.00125 -0.83736 12230 ft 383 kts 219°
2026-04-29 09:36 50.98177 -0.86637 12734 ft 385 kts 219°
2026-04-29 09:36 50.96219 -0.89558 13226 ft 388 kts 219°
2026-04-29 09:37 50.94244 -0.92505 13720 ft 390 kts 219°
2026-04-29 09:37 50.92259 -0.95462 14188 ft 393 kts 219°
2026-04-29 09:37 50.90261 -0.98428 14630 ft 395 kts 219°
2026-04-29 09:37 50.88248 -1.01404 15067 ft 397 kts 218°
2026-04-29 09:38 50.86221 -1.04390 15513 ft 399 kts 218°
2026-04-29 09:38 50.84207 -1.07358 15966 ft 401 kts 218°
2026-04-29 09:38 50.82157 -1.10373 16407 ft 403 kts 218°
2026-04-29 09:38 50.80097 -1.13401 16832 ft 405 kts 218°
2026-04-29 09:39 50.78029 -1.16446 17246 ft 408 kts 218°
2026-04-29 09:39 50.75950 -1.19504 17640 ft 410 kts 218°
2026-04-29 09:39 50.73860 -1.22578 18033 ft 412 kts 218°
2026-04-29 09:39 50.71755 -1.25666 18430 ft 414 kts 218°
2026-04-29 09:40 50.69636 -1.28767 18769 ft 416 kts 218°
2026-04-29 09:40 50.67508 -1.31874 19103 ft 418 kts 218°
2026-04-29 09:40 50.65368 -1.34990 19434 ft 420 kts 218°
2026-04-29 09:40 50.63212 -1.38123 19791 ft 421 kts 218°
2026-04-29 09:41 50.61048 -1.41269 20181 ft 422 kts 217°
2026-04-29 09:41 50.58888 -1.44411 20518 ft 424 kts 217°
2026-04-29 09:41 50.56740 -1.47528 20854 ft 426 kts 217°
2026-04-29 09:41 50.54555 -1.50694 21193 ft 428 kts 217°
2026-04-29 09:42 50.52353 -1.53876 21507 ft 430 kts 217°
2026-04-29 09:42 50.50145 -1.57068 21831 ft 432 kts 217°
2026-04-29 09:42 50.47931 -1.60269 22140 ft 434 kts 217°
2026-04-29 09:42 50.45703 -1.63483 22469 ft 436 kts 217°
2026-04-29 09:43 50.43463 -1.66710 22785 ft 438 kts 217°
2026-04-29 09:43 50.41214 -1.69949 23099 ft 440 kts 217°
2026-04-29 09:43 50.38957 -1.73196 23451 ft 441 kts 217°
2026-04-29 09:43 50.36694 -1.76448 23759 ft 443 kts 217°
2026-04-29 09:44 50.34417 -1.79712 24026 ft 444 kts 217°
2026-04-29 09:44 50.32128 -1.82983 24296 ft 445 kts 217°
2026-04-29 09:44 50.29834 -1.86252 24575 ft 447 kts 217°
2026-04-29 09:44 50.27526 -1.89533 24811 ft 449 kts 217°
2026-04-29 09:45 50.25209 -1.92825 25069 ft 450 kts 217°
2026-04-29 09:45 50.22892 -1.96125 25335 ft 451 kts 217°
2026-04-29 09:45 50.20567 -1.99435 25596 ft 452 kts 217°
2026-04-29 09:45 50.18270 -2.02702 25856 ft 453 kts 217°
2026-04-29 09:46 50.15940 -2.06010 26187 ft 452 kts 218°
2026-04-29 09:46 50.13615 -2.09298 26559 ft 450 kts 218°
2026-04-29 09:46 50.11297 -2.12569 26833 ft 450 kts 217°
2026-04-29 09:46 50.08976 -2.15839 27085 ft 450 kts 218°
2026-04-29 09:47 50.06655 -2.19112 27320 ft 451 kts 217°
2026-04-29 09:47 50.04327 -2.22392 27559 ft 451 kts 218°
2026-04-29 09:47 50.01996 -2.25669 27748 ft 452 kts 218°
2026-04-29 09:47 49.99657 -2.28950 28007 ft 453 kts 218°
2026-04-29 09:48 49.97308 -2.32234 28140 ft 455 kts 218°
2026-04-29 09:48 49.94947 -2.35526 28331 ft 455 kts 216°
2026-04-29 09:48 49.92437 -2.38440 28696 ft 445 kts 209°
2026-04-29 09:48 49.89820 -2.40938 29132 ft 439 kts 209°
2026-04-29 09:49 49.87229 -2.43417 29476 ft 435 kts 208°
2026-04-29 09:49 49.84666 -2.45882 29836 ft 432 kts 209°
2026-04-29 09:49 49.82116 -2.48337 30018 ft 432 kts 209°
2026-04-29 09:49 49.79568 -2.50793 30264 ft 431 kts 210°
2026-04-29 09:50 49.77030 -2.53240 30499 ft 429 kts 210°
2026-04-29 09:50 49.74527 -2.55645 30642 ft 430 kts 209°
2026-04-29 09:50 49.71985 -2.58076 30829 ft 428 kts 209°
2026-04-29 09:50 49.69447 -2.60488 31038 ft 427 kts 211°
2026-04-29 09:51 49.66912 -2.62897 31187 ft 428 kts 211°
2026-04-29 09:51 49.64375 -2.65307 31372 ft 427 kts 210°
2026-04-29 09:51 49.61843 -2.67710 31558 ft 427 kts 210°
2026-04-29 09:51 49.59314 -2.70111 31747 ft 427 kts 210°
2026-04-29 09:52 49.56786 -2.72510 31945 ft 426 kts 210°
2026-04-29 09:52 49.54263 -2.74899 32133 ft 426 kts 210°
2026-04-29 09:52 49.51734 -2.77286 32273 ft 426 kts 210°
2026-04-29 09:52 49.49208 -2.79667 32465 ft 425 kts 210°
2026-04-29 09:53 49.46688 -2.82042 32667 ft 425 kts 210°
2026-04-29 09:53 49.44172 -2.84409 32832 ft 424 kts 210°
2026-04-29 09:53 49.41649 -2.86784 33009 ft 424 kts 210°
2026-04-29 09:53 49.39161 -2.89122 33087 ft 425 kts 210°
2026-04-29 09:54 49.34112 -2.93847 33086 ft 424 kts 210°
2026-04-29 09:54 49.29057 -2.98575 33087 ft 425 kts 210°
2026-04-29 09:55 49.24023 -3.03272 33082 ft 422 kts 210°
2026-04-29 09:55 49.19020 -3.07934 33069 ft 420 kts 210°
2026-04-29 09:56 49.14029 -3.12577 33089 ft 421 kts 210°
2026-04-29 09:56 49.09052 -3.17188 33071 ft 421 kts 210°
2026-04-29 09:57 49.04032 -3.21818 33060 ft 422 kts 210°
2026-04-29 09:57 48.99016 -3.26441 33057 ft 421 kts 210°
2026-04-29 09:58 48.94000 -3.31067 33058 ft 421 kts 210°
2026-04-29 09:58 48.88994 -3.35670 33053 ft 420 kts 210°
2026-04-29 09:59 48.83989 -3.40248 33047 ft 420 kts 210°
2026-04-29 09:59 48.78983 -3.44814 33046 ft 420 kts 210°
2026-04-29 10:00 48.73979 -3.49372 33077 ft 420 kts 209°
2026-04-29 10:00 48.68961 -3.53945 33040 ft 421 kts 209°
2026-04-29 10:01 48.63947 -3.58498 33031 ft 423 kts 209°
2026-04-29 10:01 48.58901 -3.63058 33020 ft 423 kts 209°
2026-04-29 10:02 48.53855 -3.67605 33040 ft 421 kts 209°
2026-04-29 10:02 48.48835 -3.72132 33030 ft 420 kts 209°
2026-04-29 10:03 48.43820 -3.76642 33030 ft 419 kts 209°
2026-04-29 10:03 48.38814 -3.81128 33012 ft 418 kts 209°
2026-04-29 10:04 48.33817 -3.85581 33024 ft 416 kts 209°
2026-04-29 10:04 48.28859 -3.90009 32981 ft 413 kts 209°
2026-04-29 10:05 48.24758 -3.93680 32974 ft 413 kts 209°
2026-04-29 10:05 48.19004 -3.98799 32965 ft 414 kts 208°
2026-04-29 10:06 48.14042 -4.03195 32959 ft 414 kts 209°
2026-04-29 10:06 48.09891 -4.06865 32981 ft 413 kts 209°
2026-04-29 10:07 48.04940 -4.11219 32978 ft 412 kts 208°
2026-04-29 10:07 48.00038 -4.15534 32977 ft 411 kts 209°
2026-04-29 10:08 47.95111 -4.19871 32967 ft 411 kts 209°
2026-04-29 10:08 47.90183 -4.24195 33002 ft 410 kts 209°
2026-04-29 10:09 47.85267 -4.28500 32959 ft 410 kts 209°
2026-04-29 10:09 47.80345 -4.32812 32957 ft 411 kts 210°
2026-04-29 10:10 47.75485 -4.37309 32957 ft 412 kts 211°
2026-04-29 10:10 47.70643 -4.41880 32947 ft 412 kts 211°
2026-04-29 10:11 47.65795 -4.46408 32961 ft 411 kts 210°
2026-04-29 10:11 47.60941 -4.50901 32966 ft 411 kts 210°
2026-04-29 10:12 47.56081 -4.55367 32959 ft 411 kts 210°
2026-04-29 10:12 47.51250 -4.59800 32964 ft 411 kts 210°
2026-04-29 10:13 47.46401 -4.64258 32968 ft 409 kts 210°
2026-04-29 10:13 47.41561 -4.68692 32968 ft 408 kts 210°
2026-04-29 10:14 47.36733 -4.73102 32959 ft 407 kts 210°
2026-04-29 10:14 47.31920 -4.77494 32963 ft 406 kts 210°
2026-04-29 10:15 47.27115 -4.81869 32964 ft 405 kts 210°
2026-04-29 10:15 47.22324 -4.86218 32967 ft 404 kts 210°
2026-04-29 10:16 47.17568 -4.90520 32960 ft 403 kts 210°
2026-04-29 10:16 47.12801 -4.94831 32980 ft 402 kts 210°
2026-04-29 10:17 47.08015 -4.99163 32936 ft 405 kts 210°
2026-04-29 10:17 47.03210 -5.03484 32933 ft 405 kts 210°
2026-04-29 10:18 46.98403 -5.07799 32938 ft 404 kts 210°
2026-04-29 10:18 46.93641 -5.12076 32942 ft 404 kts 210°
2026-04-29 10:19 46.88852 -5.16363 32934 ft 403 kts 210°
2026-04-29 10:19 46.84061 -5.20631 32942 ft 403 kts 211°
2026-04-29 10:20 46.79271 -5.24896 32940 ft 403 kts 211°
2026-04-29 10:20 46.74490 -5.29154 32974 ft 403 kts 211°
2026-04-29 10:21 46.69683 -5.33420 32916 ft 405 kts 211°
2026-04-29 10:21 46.64855 -5.37688 32908 ft 406 kts 211°
2026-04-29 10:22 46.60014 -5.41954 32907 ft 407 kts 211°
2026-04-29 10:22 46.55192 -5.46206 32912 ft 408 kts 211°
2026-04-29 10:23 46.50338 -5.50480 32914 ft 408 kts 210°
2026-04-29 10:23 46.45479 -5.54754 32919 ft 408 kts 210°
2026-04-29 10:24 46.40612 -5.59017 32918 ft 408 kts 211°
2026-04-29 10:24 46.35763 -5.63256 32927 ft 407 kts 211°
2026-04-29 10:25 46.30915 -5.67477 32907 ft 407 kts 210°
2026-04-29 10:25 46.26060 -5.71701 32899 ft 408 kts 211°
2026-04-29 10:26 46.21202 -5.75932 32894 ft 408 kts 211°
2026-04-29 10:26 46.16337 -5.80155 32903 ft 407 kts 211°
2026-04-29 10:27 46.09046 -5.86445 32905 ft 407 kts 211°
2026-04-29 10:28 46.04189 -5.90631 32908 ft 407 kts 210°
2026-04-29 10:28 45.99363 -5.94782 32920 ft 406 kts 211°
2026-04-29 10:29 45.94494 -5.98953 32900 ft 407 kts 211°
2026-04-29 10:29 45.89620 -6.03134 32891 ft 408 kts 211°
2026-04-29 10:30 45.84740 -6.07326 32890 ft 409 kts 211°
2026-04-29 10:30 45.79852 -6.11499 32866 ft 409 kts 211°
2026-04-29 10:31 45.74961 -6.15650 32894 ft 408 kts 211°
2026-04-29 10:31 45.70107 -6.19769 32901 ft 408 kts 211°
2026-04-29 10:32 45.65202 -6.23936 32898 ft 407 kts 211°
2026-04-29 10:32 45.60352 -6.28043 32901 ft 409 kts 211°
2026-04-29 10:33 45.55448 -6.32188 32874 ft 409 kts 211°
2026-04-29 10:33 45.50538 -6.36323 32885 ft 409 kts 211°
2026-04-29 10:34 45.45630 -6.40450 32892 ft 409 kts 211°
2026-04-29 10:34 45.40757 -6.44550 32892 ft 409 kts 211°
2026-04-29 10:35 45.35849 -6.48655 32885 ft 409 kts 211°
2026-04-29 10:35 45.30937 -6.52756 32896 ft 408 kts 211°
2026-04-29 10:36 45.26039 -6.56842 32922 ft 408 kts 211°
2026-04-29 10:36 45.21134 -6.60935 32906 ft 409 kts 211°
2026-04-29 10:37 45.16220 -6.65022 32876 ft 410 kts 211°
2026-04-29 10:37 45.11322 -6.69072 32885 ft 410 kts 211°
2026-04-29 10:38 45.06399 -6.73144 32886 ft 410 kts 211°
2026-04-29 10:38 45.01477 -6.77207 32885 ft 409 kts 211°
2026-04-29 10:39 44.96559 -6.81260 32863 ft 409 kts 211°
2026-04-29 10:39 44.91652 -6.85311 32887 ft 409 kts 211°
2026-04-29 10:40 44.86736 -6.89349 32886 ft 409 kts 212°
2026-04-29 10:40 44.81784 -6.93333 32875 ft 410 kts 210°
2026-04-29 10:41 44.76682 -6.97015 32839 ft 412 kts 208°
2026-04-29 10:41 44.71529 -7.00581 32849 ft 413 kts 208°
2026-04-29 10:42 44.66376 -7.04190 32862 ft 414 kts 208°
2026-04-29 10:42 44.61263 -7.07825 32874 ft 415 kts 208°
2026-04-29 10:43 44.56110 -7.11490 32878 ft 415 kts 208°
2026-04-29 10:43 44.50963 -7.15141 32878 ft 415 kts 208°
2026-04-29 10:44 44.45809 -7.18780 32881 ft 415 kts 208°
2026-04-29 10:44 44.40648 -7.22421 32898 ft 415 kts 209°
2026-04-29 10:45 44.35511 -7.26034 32861 ft 416 kts 208°
2026-04-29 10:45 44.30328 -7.29665 32863 ft 417 kts 208°
2026-04-29 10:46 44.25130 -7.33298 32873 ft 418 kts 208°
2026-04-29 10:46 44.19930 -7.36930 32870 ft 418 kts 208°
2026-04-29 10:47 44.14731 -7.40571 32849 ft 418 kts 208°
2026-04-29 10:47 44.09522 -7.44199 32853 ft 419 kts 208°
2026-04-29 10:48 44.04305 -7.47821 32862 ft 419 kts 208°
2026-04-29 10:48 43.99086 -7.51449 32867 ft 420 kts 208°
2026-04-29 10:49 43.93859 -7.55080 32843 ft 420 kts 208°
2026-04-29 10:49 43.88614 -7.58700 32843 ft 421 kts 208°
2026-04-29 10:50 43.83368 -7.62314 32854 ft 422 kts 208°
2026-04-29 10:50 43.78107 -7.65937 32847 ft 423 kts 208°
2026-04-29 10:51 43.72827 -7.69562 32816 ft 424 kts 208°
2026-04-29 10:51 43.67566 -7.73169 32822 ft 425 kts 208°
2026-04-29 10:52 43.62261 -7.76793 32823 ft 426 kts 207°
2026-04-29 10:52 43.56945 -7.80427 32830 ft 426 kts 207°
2026-04-29 10:53 43.52523 -7.83442 32816 ft 427 kts 207°
2026-04-29 10:53 43.47182 -7.87074 32818 ft 428 kts 207°
2026-04-29 10:54 43.41838 -7.90699 32821 ft 428 kts 207°
2026-04-29 10:54 43.36484 -7.94326 32825 ft 429 kts 207°
2026-04-29 10:55 43.31135 -7.97950 32818 ft 429 kts 206°
2026-04-29 10:55 43.25800 -8.01549 32821 ft 430 kts 206°
2026-04-29 10:56 43.20426 -8.05168 32822 ft 430 kts 206°
2026-04-29 10:56 43.15050 -8.08789 32826 ft 430 kts 206°
2026-04-29 10:57 43.09673 -8.12403 32812 ft 431 kts 206°
2026-04-29 10:57 43.04282 -8.16013 32819 ft 432 kts 206°
2026-04-29 10:58 42.98871 -8.19625 32824 ft 432 kts 206°
2026-04-29 10:58 42.93464 -8.23224 32832 ft 433 kts 206°
2026-04-29 10:59 42.88088 -8.26803 32825 ft 433 kts 205°
2026-04-29 10:59 42.82680 -8.30406 32839 ft 433 kts 205°
2026-04-29 11:00 42.77261 -8.33999 32836 ft 433 kts 205°
2026-04-29 11:00 42.71831 -8.37585 32813 ft 434 kts 206°
2026-04-29 11:01 42.66373 -8.41189 32805 ft 437 kts 205°
2026-04-29 11:01 42.60903 -8.44805 32811 ft 437 kts 205°
2026-04-29 11:02 42.55453 -8.48393 32814 ft 438 kts 205°
2026-04-29 11:02 42.49967 -8.51999 32820 ft 438 kts 205°
2026-04-29 11:03 42.44474 -8.55601 32838 ft 439 kts 205°
2026-04-29 11:03 42.38970 -8.59196 32836 ft 439 kts 205°
2026-04-29 11:04 42.33463 -8.62782 32826 ft 439 kts 205°
2026-04-29 11:04 42.27962 -8.66367 32825 ft 439 kts 205°
2026-04-29 11:05 42.22461 -8.69945 32830 ft 439 kts 205°
2026-04-29 11:05 42.16996 -8.73491 32850 ft 439 kts 205°
2026-04-29 11:06 42.11482 -8.77067 32821 ft 440 kts 205°
2026-04-29 11:06 42.05955 -8.80645 32820 ft 441 kts 205°
2026-04-29 11:07 42.00407 -8.84233 32833 ft 442 kts 205°
2026-04-29 11:07 41.94850 -8.87809 32849 ft 442 kts 205°
2026-04-29 11:08 41.89293 -8.91364 32839 ft 443 kts 205°
2026-04-29 11:08 41.83700 -8.94843 32843 ft 442 kts 203°
2026-04-29 11:09 41.78041 -8.98052 32858 ft 441 kts 202°
2026-04-29 11:09 41.72374 -9.01182 32847 ft 440 kts 202°
2026-04-29 11:10 41.66739 -9.04352 32847 ft 439 kts 202°
2026-04-29 11:10 41.61154 -9.07538 32854 ft 439 kts 202°
2026-04-29 11:11 41.55537 -9.10727 32838 ft 439 kts 202°
2026-04-29 11:11 41.49909 -9.13898 32821 ft 440 kts 202°
2026-04-29 11:12 41.44265 -9.17081 32822 ft 441 kts 202°
2026-04-29 11:12 41.38614 -9.20267 32825 ft 441 kts 202°
2026-04-29 11:13 41.32960 -9.23451 32827 ft 441 kts 202°
2026-04-29 11:13 41.27307 -9.26624 32836 ft 441 kts 202°
2026-04-29 11:14 41.21648 -9.29789 32845 ft 441 kts 202°
2026-04-29 11:14 41.15992 -9.32947 32851 ft 441 kts 202°
2026-04-29 11:15 41.10336 -9.36099 32845 ft 441 kts 202°
2026-04-29 11:15 41.04699 -9.39239 32849 ft 441 kts 202°
2026-04-29 11:16 40.99035 -9.42390 32855 ft 441 kts 202°
2026-04-29 11:16 40.93371 -9.45529 32847 ft 441 kts 202°
2026-04-29 11:17 40.87698 -9.48654 32823 ft 443 kts 203°
2026-04-29 11:17 40.81946 -9.51630 32822 ft 445 kts 200°
2026-04-29 11:18 40.76032 -9.54163 32828 ft 447 kts 198°
2026-04-29 11:18 40.70079 -9.56554 32827 ft 448 kts 198°
2026-04-29 11:19 40.64174 -9.59001 32843 ft 448 kts 199°
2026-04-29 11:19 40.58242 -9.61545 32848 ft 448 kts 199°
2026-04-29 11:20 40.52316 -9.64093 32850 ft 448 kts 199°
2026-04-29 11:20 40.46379 -9.66608 32846 ft 448 kts 199°
2026-04-29 11:21 40.40426 -9.69113 32848 ft 450 kts 199°
2026-04-29 11:21 40.34469 -9.71639 32852 ft 450 kts 199°
2026-04-29 11:22 40.28510 -9.74154 32858 ft 450 kts 199°
2026-04-29 11:22 40.22545 -9.76653 32861 ft 450 kts 199°
2026-04-29 11:23 40.16573 -9.79150 32863 ft 450 kts 199°
2026-04-29 11:23 40.10608 -9.81653 32866 ft 450 kts 199°
2026-04-29 11:24 40.04642 -9.84155 32856 ft 450 kts 199°
2026-04-29 11:24 39.98701 -9.86635 32850 ft 452 kts 199°
2026-04-29 11:25 39.92704 -9.89130 32851 ft 453 kts 199°
2026-04-29 11:25 39.86692 -9.91626 32863 ft 453 kts 199°
2026-04-29 11:26 39.77683 -9.95357 32878 ft 452 kts 200°
2026-04-29 11:26 39.71695 -9.97828 32880 ft 451 kts 200°
2026-04-29 11:27 39.65719 -10.00311 32882 ft 450 kts 200°
2026-04-29 11:27 39.59751 -10.02782 32879 ft 450 kts 200°
2026-04-29 11:28 39.53825 -10.05222 32883 ft 449 kts 201°
2026-04-29 11:28 39.47873 -10.07665 32891 ft 448 kts 201°
2026-04-29 11:29 39.41936 -10.10104 32888 ft 447 kts 201°
2026-04-29 11:29 39.36006 -10.12539 32862 ft 447 kts 201°
2026-04-29 11:30 39.30085 -10.14950 32882 ft 446 kts 201°
2026-04-29 11:30 39.24171 -10.17358 32887 ft 445 kts 201°
2026-04-29 11:31 39.18266 -10.19768 32890 ft 445 kts 202°
2026-04-29 11:31 39.12359 -10.22185 32861 ft 445 kts 202°
2026-04-29 11:32 39.06486 -10.24570 32884 ft 445 kts 202°
2026-04-29 11:32 39.00569 -10.26951 32897 ft 445 kts 202°
2026-04-29 11:33 38.94668 -10.29337 32903 ft 444 kts 202°
2026-04-29 11:33 38.88772 -10.31719 32874 ft 444 kts 203°
2026-04-29 11:34 38.82890 -10.34083 32900 ft 441 kts 203°
2026-04-29 11:34 38.77022 -10.36439 32904 ft 441 kts 203°
2026-04-29 11:35 38.71170 -10.38811 32911 ft 440 kts 203°
2026-04-29 11:35 38.65325 -10.41169 32876 ft 440 kts 204°
2026-04-29 11:36 38.59531 -10.43468 32920 ft 438 kts 204°
2026-04-29 11:36 38.53725 -10.45792 32927 ft 436 kts 205°
2026-04-29 11:37 38.47948 -10.48112 32923 ft 434 kts 205°
2026-04-29 11:37 38.42185 -10.50414 32922 ft 434 kts 204°
2026-04-29 11:38 38.36445 -10.52665 32910 ft 429 kts 205°
2026-04-29 11:38 38.30729 -10.54861 32918 ft 429 kts 205°
2026-04-29 11:39 38.25084 -10.57150 32924 ft 428 kts 206°
2026-04-29 11:39 38.19407 -10.59443 32917 ft 429 kts 205°
2026-04-29 11:40 38.13709 -10.61703 32877 ft 429 kts 205°
2026-04-29 11:40 38.08003 -10.63945 32894 ft 429 kts 205°
2026-04-29 11:41 38.02306 -10.66185 32905 ft 429 kts 205°
2026-04-29 11:41 37.96598 -10.68426 32914 ft 428 kts 205°
2026-04-29 11:42 37.90904 -10.70656 32918 ft 428 kts 205°
2026-04-29 11:42 37.86168 -10.72503 32927 ft 428 kts 205°
2026-04-29 11:43 37.80479 -10.74743 32917 ft 428 kts 205°
2026-04-29 11:43 37.74794 -10.76975 32921 ft 428 kts 205°
2026-04-29 11:44 37.68189 -10.79563 32884 ft 428 kts 205°
2026-04-29 11:44 37.63424 -10.81417 32898 ft 428 kts 205°
2026-04-29 11:45 37.57734 -10.83625 32915 ft 428 kts 205°
2026-04-29 11:45 37.52007 -10.85846 33156 ft 431 kts 205°
2026-04-29 11:46 37.49132 -10.86955 33350 ft 432 kts 205°
2026-04-29 11:46 37.46259 -10.88065 33545 ft 431 kts 205°
2026-04-29 11:46 37.43395 -10.89175 33680 ft 431 kts 204°
2026-04-29 11:46 37.40525 -10.90293 33845 ft 432 kts 204°
2026-04-29 11:47 37.37653 -10.91409 34014 ft 432 kts 204°
2026-04-29 11:47 37.34783 -10.92521 34173 ft 432 kts 204°
2026-04-29 11:47 37.31911 -10.93627 34328 ft 432 kts 204°
2026-04-29 11:47 37.29039 -10.94732 34487 ft 432 kts 204°
2026-04-29 11:48 37.26165 -10.95837 34605 ft 433 kts 204°
2026-04-29 11:48 37.23321 -10.96931 34752 ft 433 kts 204°
2026-04-29 11:48 37.17564 -10.99146 34923 ft 433 kts 204°
2026-04-29 11:49 37.11799 -11.01357 34928 ft 433 kts 204°
2026-04-29 11:49 37.06039 -11.03562 34946 ft 433 kts 204°
2026-04-29 11:50 37.00284 -11.05766 34949 ft 432 kts 204°
2026-04-29 11:50 36.94524 -11.07969 34926 ft 432 kts 203°
2026-04-29 11:51 36.88770 -11.10167 34947 ft 433 kts 203°
2026-04-29 11:51 36.83005 -11.12360 34956 ft 433 kts 203°
2026-04-29 11:52 36.77228 -11.14561 34963 ft 434 kts 203°
2026-04-29 11:52 36.71451 -11.16747 34966 ft 434 kts 203°
2026-04-29 11:53 36.65718 -11.18923 34960 ft 433 kts 203°
2026-04-29 11:53 36.59951 -11.21112 34973 ft 433 kts 203°
2026-04-29 11:54 36.54186 -11.23293 34980 ft 433 kts 203°
2026-04-29 11:54 36.48416 -11.25468 34983 ft 433 kts 203°
2026-04-29 11:55 36.42653 -11.27625 34966 ft 432 kts 202°
2026-04-29 11:55 36.36894 -11.29794 34979 ft 432 kts 203°
2026-04-29 11:56 36.31181 -11.31951 34976 ft 432 kts 203°
2026-04-29 11:56 36.25422 -11.34106 34976 ft 432 kts 202°
2026-04-29 11:57 36.19658 -11.36258 34960 ft 433 kts 202°
2026-04-29 11:57 36.13891 -11.38421 34974 ft 433 kts 202°
2026-04-29 11:58 36.08126 -11.40575 34981 ft 433 kts 202°
2026-04-29 11:58 36.02355 -11.42723 34988 ft 433 kts 202°
2026-04-29 11:59 35.96697 -11.45161 34992 ft 426 kts 212°
2026-04-29 11:59 35.91811 -11.49143 34971 ft 420 kts 220°
2026-04-29 12:00 35.87039 -11.53328 34980 ft 421 kts 220°
2026-04-29 12:00 35.82253 -11.57498 34990 ft 421 kts 220°
2026-04-29 12:01 35.77470 -11.61683 34994 ft 421 kts 220°
2026-04-29 12:01 35.72696 -11.65872 34996 ft 422 kts 220°
2026-04-29 12:02 35.67940 -11.70028 34996 ft 422 kts 220°
2026-04-29 12:02 35.63152 -11.74200 34987 ft 422 kts 219°
2026-04-29 12:03 35.58355 -11.78378 34994 ft 422 kts 219°
2026-04-29 12:03 35.53552 -11.82540 34997 ft 422 kts 219°
2026-04-29 12:04 35.48749 -11.86705 34997 ft 422 kts 220°
2026-04-29 12:04 35.43958 -11.90882 35003 ft 422 kts 219°
2026-04-29 12:05 35.39155 -11.95041 35007 ft 422 kts 219°
2026-04-29 12:05 35.34380 -11.99164 35009 ft 422 kts 219°
2026-04-29 12:06 35.29574 -12.03310 35008 ft 422 kts 219°
2026-04-29 12:06 35.24768 -12.07458 35005 ft 423 kts 219°
2026-04-29 12:07 35.19961 -12.11602 35004 ft 423 kts 219°
2026-04-29 12:07 35.15132 -12.15746 35009 ft 423 kts 219°
2026-04-29 12:08 35.10307 -12.19879 34997 ft 424 kts 219°
2026-04-29 12:08 35.05480 -12.24015 35006 ft 424 kts 219°
2026-04-29 12:09 35.00648 -12.28151 35010 ft 424 kts 219°
2026-04-29 12:09 34.95846 -12.32253 35006 ft 424 kts 219°
2026-04-29 12:10 34.91002 -12.36381 35014 ft 425 kts 219°
2026-04-29 12:10 34.86161 -12.40503 35005 ft 425 kts 219°
2026-04-29 12:11 34.81308 -12.44637 35001 ft 425 kts 219°
2026-04-29 12:11 34.76455 -12.48762 35008 ft 426 kts 219°
2026-04-29 12:12 34.71598 -12.52882 35010 ft 426 kts 219°
2026-04-29 12:12 34.66768 -12.56970 35014 ft 426 kts 219°
2026-04-29 12:13 34.61901 -12.61078 35019 ft 426 kts 219°
2026-04-29 12:13 34.57034 -12.65191 35008 ft 426 kts 218°
2026-04-29 12:14 34.52162 -12.69297 35010 ft 426 kts 218°
2026-04-29 12:14 34.47284 -12.73408 35016 ft 427 kts 218°
2026-04-29 12:15 34.42402 -12.77509 35016 ft 427 kts 218°
2026-04-29 12:15 34.37520 -12.81601 35015 ft 427 kts 218°
2026-04-29 12:16 34.32662 -12.85680 35018 ft 428 kts 218°
2026-04-29 12:16 34.27772 -12.89780 35007 ft 428 kts 218°
2026-04-29 12:17 34.22879 -12.93878 35009 ft 428 kts 218°
2026-04-29 12:17 34.17991 -12.98001 35014 ft 428 kts 218°
2026-04-29 12:18 34.13104 -13.02125 35017 ft 429 kts 218°
2026-04-29 12:18 34.08211 -13.06244 35023 ft 429 kts 218°
2026-04-29 12:19 34.03319 -13.10359 35031 ft 429 kts 218°
2026-04-29 12:19 33.98424 -13.14475 35014 ft 429 kts 218°
2026-04-29 12:20 33.93546 -13.18557 35015 ft 429 kts 218°
2026-04-29 12:20 33.88633 -13.22665 35020 ft 430 kts 218°
2026-04-29 12:21 33.83722 -13.26774 35024 ft 430 kts 218°
2026-04-29 12:21 33.78812 -13.30869 35023 ft 430 kts 218°
2026-04-29 12:22 33.73901 -13.34962 35002 ft 430 kts 218°
2026-04-29 12:22 33.68980 -13.39054 35006 ft 430 kts 218°
2026-04-29 12:23 33.64057 -13.43141 35012 ft 431 kts 218°
2026-04-29 12:23 33.59123 -13.47229 35018 ft 431 kts 218°
2026-04-29 12:24 33.54186 -13.51316 35031 ft 431 kts 218°
2026-04-29 12:24 33.49246 -13.55395 35035 ft 431 kts 218°
2026-04-29 12:25 33.44306 -13.59476 35019 ft 431 kts 218°
2026-04-29 12:26 33.36923 -13.65570 35028 ft 432 kts 217°
2026-04-29 12:26 33.31966 -13.69644 35028 ft 432 kts 217°
2026-04-29 12:27 33.27012 -13.73717 35031 ft 432 kts 217°
2026-04-29 12:27 33.22059 -13.77785 35034 ft 432 kts 217°
2026-04-29 12:28 33.17103 -13.81845 35025 ft 432 kts 217°
2026-04-29 12:28 33.12142 -13.85894 35033 ft 432 kts 217°
2026-04-29 12:29 33.07163 -13.89924 35037 ft 432 kts 217°
2026-04-29 12:29 33.02197 -13.93943 35042 ft 431 kts 217°
2026-04-29 12:30 32.97237 -13.97960 35042 ft 431 kts 217°
2026-04-29 12:30 32.92280 -14.01974 35043 ft 431 kts 217°
2026-04-29 12:31 32.88159 -14.05306 35038 ft 431 kts 217°
2026-04-29 12:31 32.82396 -14.09955 35040 ft 431 kts 217°
2026-04-29 12:32 32.77429 -14.13947 35043 ft 431 kts 217°
2026-04-29 12:32 32.73267 -14.17292 35046 ft 431 kts 217°
2026-04-29 12:33 32.68300 -14.21289 35046 ft 431 kts 217°
2026-04-29 12:33 32.63362 -14.25252 35051 ft 430 kts 217°
2026-04-29 12:34 32.58397 -14.29221 35052 ft 430 kts 217°
2026-04-29 12:34 32.53446 -14.33186 35054 ft 429 kts 217°
2026-04-29 12:35 32.48494 -14.37143 35053 ft 429 kts 217°
2026-04-29 12:35 32.43542 -14.41086 35052 ft 429 kts 216°
2026-04-29 12:36 32.38593 -14.45028 35051 ft 428 kts 216°
2026-04-29 12:36 32.33647 -14.48967 35050 ft 428 kts 217°
2026-04-29 12:37 32.28699 -14.52901 35044 ft 428 kts 216°
2026-04-29 12:37 32.23749 -14.56821 35047 ft 428 kts 216°
2026-04-29 12:38 32.18803 -14.60740 35054 ft 428 kts 216°
2026-04-29 12:38 32.13869 -14.64648 35055 ft 427 kts 216°
2026-04-29 12:39 32.08970 -14.68522 35053 ft 426 kts 216°
2026-04-29 12:39 32.04038 -14.72414 35052 ft 426 kts 216°
2026-04-29 12:40 31.99107 -14.76289 35046 ft 426 kts 216°
2026-04-29 12:40 31.94175 -14.80168 35050 ft 425 kts 216°
2026-04-29 12:41 31.89255 -14.84041 35050 ft 425 kts 216°
2026-04-29 12:41 31.84340 -14.87908 35050 ft 425 kts 216°
2026-04-29 12:42 31.79427 -14.91764 35050 ft 425 kts 216°
2026-04-29 12:42 31.74535 -14.95589 35053 ft 424 kts 215°
2026-04-29 12:43 31.69622 -14.99427 35044 ft 423 kts 215°
2026-04-29 12:43 31.64722 -15.03257 35049 ft 423 kts 215°
2026-04-29 12:44 31.59826 -15.07073 35050 ft 422 kts 215°
2026-04-29 12:44 31.54935 -15.10885 35050 ft 422 kts 215°
2026-04-29 12:45 31.50041 -15.14689 35051 ft 422 kts 215°
2026-04-29 12:45 31.45143 -15.18488 35050 ft 422 kts 215°
2026-04-29 12:46 31.40276 -15.22262 35044 ft 421 kts 215°
2026-04-29 12:46 31.35391 -15.26047 35049 ft 421 kts 215°
2026-04-29 12:47 31.30510 -15.29837 35052 ft 421 kts 214°
2026-04-29 12:47 31.25478 -15.33329 35051 ft 421 kts 210°
2026-04-29 12:48 31.20297 -15.36529 35049 ft 421 kts 209°
2026-04-29 12:48 31.15104 -15.39721 35050 ft 421 kts 210°
2026-04-29 12:49 31.09955 -15.42974 35045 ft 421 kts 210°
2026-04-29 12:49 31.04813 -15.46262 35049 ft 421 kts 210°
2026-04-29 12:50 30.99709 -15.49513 35048 ft 421 kts 210°
2026-04-29 12:50 30.94566 -15.52780 35051 ft 421 kts 210°
2026-04-29 12:51 30.89424 -15.56040 35051 ft 420 kts 210°
2026-04-29 12:51 30.84286 -15.59298 35036 ft 420 kts 210°
2026-04-29 12:52 30.79153 -15.62543 35042 ft 420 kts 210°
2026-04-29 12:52 30.74011 -15.65778 35061 ft 420 kts 209°
2026-04-29 12:53 30.68881 -15.69014 35055 ft 419 kts 209°
2026-04-29 12:53 30.63755 -15.72244 35052 ft 419 kts 209°
2026-04-29 12:54 30.58626 -15.75476 35051 ft 419 kts 209°
2026-04-29 12:54 30.53504 -15.78696 35038 ft 419 kts 209°
2026-04-29 12:55 30.48365 -15.81907 35042 ft 419 kts 209°
2026-04-29 12:55 30.43271 -15.85098 35046 ft 419 kts 209°
2026-04-29 12:56 30.38140 -15.88312 35051 ft 419 kts 209°
2026-04-29 12:56 30.33012 -15.91520 35050 ft 419 kts 209°
2026-04-29 12:57 30.27889 -15.94725 35050 ft 419 kts 209°
2026-04-29 12:57 30.22764 -15.97929 35043 ft 419 kts 209°
2026-04-29 12:58 30.17636 -16.01119 35056 ft 419 kts 209°
2026-04-29 12:58 30.12505 -16.04304 35053 ft 419 kts 209°
2026-04-29 12:59 30.07375 -16.07492 35050 ft 418 kts 209°
2026-04-29 12:59 30.02248 -16.10676 35049 ft 418 kts 208°
2026-04-29 13:00 29.97122 -16.13849 35048 ft 418 kts 209°
2026-04-29 13:00 29.91994 -16.17029 35043 ft 418 kts 209°
2026-04-29 13:01 29.86907 -16.20187 35049 ft 418 kts 209°
2026-04-29 13:01 29.81785 -16.23361 35050 ft 418 kts 209°
2026-04-29 13:02 29.76650 -16.26512 35050 ft 418 kts 208°
2026-04-29 13:02 29.71516 -16.29648 35049 ft 418 kts 209°
2026-04-29 13:03 29.66392 -16.32799 35050 ft 417 kts 209°
2026-04-29 13:03 29.61276 -16.35964 35054 ft 417 kts 209°
2026-04-29 13:04 29.56524 -16.39749 35049 ft 416 kts 220°
2026-04-29 13:04 29.52052 -16.43978 35046 ft 417 kts 220°
2026-04-29 13:05 29.47571 -16.48195 35041 ft 417 kts 219°
2026-04-29 13:05 29.43078 -16.52424 35043 ft 417 kts 220°
2026-04-29 13:06 29.38592 -16.56650 35047 ft 417 kts 220°
2026-04-29 13:06 29.34103 -16.60873 35035 ft 417 kts 219°
2026-04-29 13:07 29.29638 -16.65061 35034 ft 417 kts 219°
2026-04-29 13:07 29.25149 -16.69270 34745 ft 415 kts 219°
2026-04-29 13:07 29.22905 -16.71372 34072 ft 417 kts 219°
2026-04-29 13:08 29.20651 -16.73481 33224 ft 420 kts 219°
2026-04-29 13:08 29.18381 -16.75607 32409 ft 422 kts 220°
2026-04-29 13:08 29.16104 -16.77738 31627 ft 424 kts 220°
2026-04-29 13:08 29.13827 -16.79869 31012 ft 421 kts 220°
2026-04-29 13:09 29.11572 -16.81980 30499 ft 416 kts 220°
2026-04-29 13:09 29.09340 -16.84063 29978 ft 412 kts 220°
2026-04-29 13:09 29.07127 -16.86125 29357 ft 408 kts 220°
2026-04-29 13:09 29.04937 -16.88168 28747 ft 404 kts 220°
2026-04-29 13:10 29.02768 -16.90191 28112 ft 401 kts 220°
2026-04-29 13:10 29.00614 -16.92200 27507 ft 398 kts 220°
2026-04-29 13:10 28.98476 -16.94194 26919 ft 395 kts 220°
2026-04-29 13:10 28.96359 -16.96172 26325 ft 392 kts 220°
2026-04-29 13:11 28.94256 -16.98133 25744 ft 389 kts 220°
2026-04-29 13:11 28.92190 -17.00054 25187 ft 387 kts 220°
2026-04-29 13:11 28.90112 -17.01981 24637 ft 384 kts 220°
2026-04-29 13:11 28.88040 -17.03898 24090 ft 382 kts 220°
2026-04-29 13:12 28.85986 -17.05800 23546 ft 379 kts 220°
2026-04-29 13:12 28.83944 -17.07693 22917 ft 377 kts 221°
2026-04-29 13:12 28.81918 -17.09575 22337 ft 374 kts 221°
2026-04-29 13:12 28.79906 -17.11441 21782 ft 371 kts 220°
2026-04-29 13:13 28.77911 -17.13288 21229 ft 368 kts 220°
2026-04-29 13:13 28.75931 -17.15118 20684 ft 365 kts 220°
2026-04-29 13:13 28.73781 -17.16651 19937 ft 370 kts 205°
2026-04-29 13:13 28.71235 -17.17330 19036 ft 384 kts 184°
2026-04-29 13:14 28.68589 -17.16933 18581 ft 385 kts 167°
2026-04-29 13:14 28.66054 -17.15978 18090 ft 381 kts 165°
2026-04-29 13:14 28.63557 -17.15017 17607 ft 375 kts 165°
2026-04-29 13:14 28.61107 -17.14072 17134 ft 369 kts 165°
2026-04-29 13:15 28.58698 -17.13145 16680 ft 363 kts 165°
2026-04-29 13:15 28.56355 -17.12245 16226 ft 358 kts 165°
2026-04-29 13:15 28.54010 -17.11345 15767 ft 353 kts 165°
2026-04-29 13:15 28.51696 -17.10456 15315 ft 349 kts 165°
2026-04-29 13:16 28.49409 -17.09576 14869 ft 345 kts 165°
2026-04-29 13:16 28.47145 -17.08705 14417 ft 341 kts 165°
2026-04-29 13:16 28.44907 -17.07847 13985 ft 338 kts 165°
2026-04-29 13:16 28.42692 -17.06997 13516 ft 334 kts 165°
2026-04-29 13:17 28.40498 -17.06158 13072 ft 330 kts 165°
2026-04-29 13:17 28.38334 -17.05334 12644 ft 326 kts 165°
2026-04-29 13:17 28.36218 -17.04530 12210 ft 323 kts 165°
2026-04-29 13:17 28.34092 -17.03720 11793 ft 321 kts 164°
2026-04-29 13:18 28.31988 -17.02912 11373 ft 318 kts 164°
2026-04-29 13:18 28.29898 -17.02109 10957 ft 316 kts 164°
2026-04-29 13:18 28.27832 -17.01318 10689 ft 308 kts 164°
2026-04-29 13:18 28.25843 -17.00555 10567 ft 295 kts 164°
2026-04-29 13:19 28.23934 -16.99825 10447 ft 283 kts 164°
2026-04-29 13:19 28.22711 -16.99358 10367 ft 276 kts 165°
2026-04-29 13:19 28.20925 -16.98676 10238 ft 266 kts 165°
2026-04-29 13:19 28.19193 -16.98014 10030 ft 259 kts 164°
2026-04-29 13:20 28.17500 -16.97365 9982 ft 257 kts 165°
2026-04-29 13:20 28.15802 -16.96697 9810 ft 260 kts 163°
2026-04-29 13:20 28.14111 -16.95964 9494 ft 258 kts 161°
2026-04-29 13:20 28.12461 -16.95219 9052 ft 253 kts 161°
2026-04-29 13:21 28.10829 -16.94476 8435 ft 251 kts 161°
2026-04-29 13:21 28.09237 -16.93754 7857 ft 249 kts 161°
2026-04-29 13:21 28.07633 -16.93032 7286 ft 247 kts 161°
2026-04-29 13:21 28.06050 -16.92319 6699 ft 244 kts 160°
2026-04-29 13:22 28.04489 -16.91611 6114 ft 239 kts 160°
2026-04-29 13:22 28.02948 -16.90912 5473 ft 237 kts 160°
2026-04-29 13:22 28.01427 -16.90228 4899 ft 233 kts 160°
2026-04-29 13:22 27.99976 -16.89571 4661 ft 219 kts 159°
2026-04-29 13:23 27.98733 -16.88613 4332 ft 218 kts 130°
2026-04-29 13:23 27.98132 -16.87055 3968 ft 219 kts 102°
2026-04-29 13:23 27.97932 -16.85339 3594 ft 220 kts 97°
2026-04-29 13:23 27.97785 -16.83620 3245 ft 219 kts 96°
2026-04-29 13:24 27.97645 -16.81911 3015 ft 218 kts 96°
2026-04-29 13:24 27.97511 -16.80197 3004 ft 219 kts 96°
2026-04-29 13:24 27.97376 -16.78485 3008 ft 219 kts 94°
2026-04-29 13:24 27.97612 -16.76797 3005 ft 220 kts 69°
2026-04-29 13:25 27.98167 -16.75216 3007 ft 207 kts 69°
2026-04-29 13:25 27.99151 -16.72427 2734 ft 183 kts 69°
2026-04-29 13:25 27.99617 -16.71096 2497 ft 181 kts 69°
2026-04-29 13:26 28.00079 -16.69774 2259 ft 180 kts 69°
2026-04-29 13:26 28.00539 -16.68463 2016 ft 179 kts 69°
2026-04-29 13:26 28.00992 -16.67168 1789 ft 174 kts 69°
2026-04-29 13:26 28.01426 -16.65928 1570 ft 165 kts 70°
2026-04-29 13:27 28.01836 -16.64747 1338 ft 158 kts 70°
2026-04-29 13:27 28.02235 -16.63609 1125 ft 154 kts 70°
2026-04-29 13:27 28.02621 -16.62491 934 ft 151 kts 71°
2026-04-29 13:27 28.03005 -16.61389 714 ft 150 kts 70°
2026-04-29 13:28 28.03380 -16.60304 520 ft 147 kts 71°
2026-04-29 13:28 28.03756 -16.59228 319 ft 146 kts 71°
2026-04-29 13:28 28.04127 -16.58165 199 ft 138 kts 71°
2026-04-29 13:28 28.04420 -16.57321 210 ft 83 kts 69°
2026-04-29 13:29 28.04560 -16.56981 209 ft 28 kts 38°
2026-04-29 13:29 28.04690 -16.56834 214 ft 27 kts 49°
2026-04-29 13:29 28.04784 -16.56786 207 ft 13 kts 309°
2026-04-29 13:29 28.04768 -16.56884 208 ft 14 kts 249°
2026-04-29 13:30 28.04736 -16.56981 212 ft 13 kts 249°
2026-04-29 13:30 28.04701 -16.57080 209 ft 14 kts 246°
2026-04-29 13:30 28.04701 -16.57149 210 ft 8 kts 329°
2026-04-29 13:30 28.04753 -16.57176 213 ft 3 kts 337°
2026-04-29 13:31 28.04754 -16.57176 212 ft 0 kts 337°
2026-04-29 13:31 28.04774 -16.57191 206 ft 9 kts 321°
2026-04-29 13:31 28.04787 -16.57264 214 ft 11 kts 240°
2026-04-29 13:31 28.04744 -16.57346 206 ft 13 kts 245°
2026-04-29 13:32 28.04707 -16.57447 208 ft 15 kts 247°
2026-04-29 13:32 28.04663 -16.57561 212 ft 17 kts 249°
2026-04-29 13:32 28.04625 -16.57678 201 ft 15 kts 249°
2026-04-29 13:32 28.04592 -16.57774 207 ft 8 kts 249°
2026-04-29 13:33 28.04605 -16.57819 213 ft 6 kts 326°
2026-04-29 13:33 28.04635 -16.57832 204 ft 4 kts 347°
2026-04-29 13:33 28.04649 -16.57837 201 ft 0 kts 338°